Kenai, AK

11:11 AM AKST on December 05, 2019 (GMT -0900)
Kenai Municipal

Weather History for PAEN - October, 2019

Change the Weather History Date:

Friday, October 18, 2019

  Actual Average Record
Temperature  
Mean Temperature 40 °F -  
Max Temperature 46 °F 41 °F 53 °F (1969)
Min Temperature 33 °F 25 °F -4 °F (1996)
Degree Days  
Heating Degree Days 26    
Moisture  
Dew Point 34 °F    
Average Humidity 83    
Maximum Humidity 96    
Minimum Humidity 58    
Precipitation  
Precipitation 0.00 in - - ()
Sea Level Pressure  
Sea Level Pressure 29.20 in    
Wind  
Wind Speed 2 mph (ENE)    
Max Wind Speed 6 mph    
Max Gust Speed -    
Visibility 10 miles    
Events Rain    
Averages and records for this station are not official NWS values.
T = Trace of Precipitation, MM = Missing Value Source: NWS Daily Summary

Daily Weather History Graph

Daily Weather History Graph

Search for Another Location

Airport or City:

Astronomy

Oct. 18, 2019 Rise Set
Actual Time 8:53 AM AKDT 6:45 PM AKDT
Civil Twilight 8:09 AM AKDT 7:29 PM AKDT
Nautical Twilight 7:20 AM AKDT 8:17 PM AKDT
Astronomical Twilight 6:31 AM AKDT 9:07 PM AKDT
Moon 8:58 PM AKDT (10/18) 2:47 PM AKDT (10/18)
Length of Visible Light 11h 19m
Length of Day
9h 52m
Waning Gibbous, 77% of the Moon is Illuminated
Oct 18
Waning Gibbous
Oct 21
Last Quarter
Oct 27
New
Nov 4
First Quarter
Nov 12
Full

Hourly Weather History & Observations

Time (AKDT) Temp. Windchill Dew Point Humidity Pressure Visibility Wind Dir Wind Speed Gust Speed Precip Events Conditions
12:53 AM 33.1 °F - 30.9 °F 92% 29.06 in 10.0 mi Calm Calm - N/A   Overcast
1:53 AM 33.1 °F - 32.0 °F 96% 29.06 in 10.0 mi Calm Calm - N/A   Overcast
2:53 AM 34.0 °F - 30.9 °F 89% 29.07 in 10.0 mi Calm Calm - N/A   Overcast
3:53 AM 34.0 °F - 32.0 °F 92% 29.07 in 10.0 mi Calm Calm - 0.00 in Rain Light Rain
4:17 AM 34.0 °F 31.0 °F 32.0 °F 92% 29.07 in 10.0 mi North 3.5 mph - 0.00 in Rain Light Rain
4:53 AM 35.1 °F 32.2 °F 33.1 °F 92% 29.08 in 10.0 mi North 3.5 mph - 0.00 in Rain Light Rain
5:53 AM 36.0 °F 33.3 °F 33.1 °F 89% 29.09 in 10.0 mi East 3.5 mph - 0.00 in   Overcast
6:53 AM 36.0 °F - 34.0 °F 93% 29.10 in 10.0 mi Calm Calm - 0.00 in   Overcast
7:53 AM 36.0 °F - 34.0 °F 93% 29.11 in 10.0 mi Calm Calm - N/A   Overcast
8:53 AM 36.0 °F 33.3 °F 34.0 °F 93% 29.13 in 10.0 mi ENE 3.5 mph - N/A   Overcast
9:53 AM 36.0 °F 31.1 °F 33.1 °F 89% 29.14 in 10.0 mi North 5.8 mph - N/A   Overcast
10:53 AM 39.0 °F 34.8 °F 35.1 °F 86% 29.17 in 10.0 mi NE 5.8 mph - N/A   Overcast
11:53 AM 41.0 °F 37.1 °F 34.0 °F 76% 29.19 in 10.0 mi NE 5.8 mph - N/A   Overcast
12:53 PM 42.1 °F 38.4 °F 36.0 °F 79% 29.21 in 10.0 mi NNE 5.8 mph - N/A   Overcast
1:53 PM 43.0 °F 41.3 °F 36.0 °F 76% 29.23 in 10.0 mi NNE 3.5 mph - N/A   Partly Cloudy
2:53 PM 45.0 °F - 34.0 °F 65% 29.24 in 10.0 mi Calm Calm - N/A   Mostly Cloudy
3:53 PM 46.0 °F - 33.1 °F 61% 29.26 in 10.0 mi Calm Calm - N/A   Overcast
4:53 PM 46.0 °F - 32.0 °F 58% 29.28 in 10.0 mi Calm Calm - N/A   Overcast
5:53 PM 44.1 °F - 33.1 °F 65% 29.30 in 10.0 mi Calm Calm - N/A   Overcast
6:53 PM 42.1 °F - 34.0 °F 73% 29.32 in 10.0 mi Calm Calm - N/A   Mostly Cloudy
7:53 PM 41.0 °F 37.1 °F 36.0 °F 82% 29.34 in 10.0 mi South 5.8 mph - N/A   Overcast
8:53 PM 39.9 °F 36.7 °F 36.0 °F 86% 29.36 in 10.0 mi South 4.6 mph - 0.00 in   Overcast
9:53 PM 39.0 °F 36.8 °F 35.1 °F 86% 29.37 in 10.0 mi SSE 3.5 mph - N/A   Overcast
10:53 PM 39.0 °F 35.7 °F 35.1 °F 86% 29.39 in 10.0 mi South 4.6 mph - N/A   Overcast
11:53 PM 39.0 °F 36.8 °F 35.1 °F 86% 29.41 in 10.0 mi SSE 3.5 mph - N/A   Overcast